Timeline UpdatesTrip UpdatesNews PostsPvt PostsTravel TipsAdmin PostsConv PostsFollowed PostsChat RequestsBlog PostsPNR Posts

Disclaimer
Search
 
 
Fri Aug 1, 2014 17:24:06 ISTHomeTrainsΣChainsAtlasPNRForumGalleryNewsFAQTripsMembersLoginFeedback
No Recent News for this Train
Other Trains in the News **new
Latest...
..
Mon Dec 30, 2013 (12:01AM)
⇐ Return Journey: Train# 19037

19038/Avadh Express

Oct 03 2013 (4:56PM)
Change Departure Station:
Change Arrival Station:
Post a Train Travel TipPost a Train Travel Tip **new
Post a Comment/Question/Picture/VideoPost a Comment/Question/Picture/Video
Pantry/Catering
✓ Pantry Car Avbl
✓ Catering Avbl
Loco/Rake Reversals
LJN/Lucknow Junction (6);
RSA - Rake Sharing
19039/19040 Avadh Express.
Rake/Coach Composition
ENGINE-SLR-GEN-GEN-A1-B1-B2-PC-S1-S2-S3-S4-S5-S6-S7-S8-S9-S10-S11-S12-S13-S14-S15-SLR; Total 23 Coaches.
Loco
GKP-LJN: GD WDM-3A LJN-BDTS: BRC WAP-4
News    PNR    Forum    Time-Table    Availability    Fare Chart    Map    Arr/Dep History    Trips    Gallery    ΣChains    X/O    Timeline    
Travel Time: 24h 8m    45 halts    Distance: 1083 km    Avg Speed: 44 km/hr
Type: Mail/Express
Zone: WR/Western
Departs @ 13:20 (Avg 1m late)
Platform# 7
 M W FS
Gorakhpur Junction/GKP 
Arrives @ 13:28 +1 night (Avg 46m late)
Platform# ???
S T T S
Suwasra/SVA 

45 halts. 161 intermediate Stations between Gorakhpur Junction and Suwasra

Show ALL intermediate Stations  Show Old Time-Table

#CodeStation NameX/OArrivesAvgDepartsAvgHaltPFDay#KmSpeedElevZoneAddress
1GKP»Gorakhpur Junction (10)»  -13:20+1710.04184mNERGorakhpur 273001, Uttar Pradesh
2SWASahjanwa (2)  13:45+1713:47+192m--117.14580mNERGorakhpur - 273209, Uttar Pradesh
3MHHMaghar (3)X  13:58+1914:00+192m--125.45783mNERNH 28. Distt- SantKabirNagar- 272173, Uttar Pradesh
4KLDKhalilabad (3)X  14:09+2214:11+222m--133.96186mNERKhalilabad- 272175, Uttar Pradesh
5BSTBasti (4)  14:40+2414:45+245m2163.58090mNERBasti 272001, Uttar Pradesh
6BVBabhnan (2)  15:08+3015:10+302m--194.247101mNERDistrict- Basti, Uttar Pradesh
7MSWMaskanwa (2)  15:30+2815:32+292m--1109.947103mNERChhapaiya Rd, Uttar Pradesh
8MURMankapur Junction (5)X  15:50+3015:52+302m21124.060104mNERDistrict Gonda, Uttar Pradesh
9GDGonda Junction (3)X  16:20+3216:35+3415m11151.975110mNERGonda 271001, Uttar Pradesh
10CLJColonelGanj (2)X  16:58+4517:00+462m--1180.865108mNERGonda, Uttar Pradesh
11JLDJarwal Road (2)X  17:16+5117:18+522m--1198.044112mNERBehraich, Uttar Pradesh
12BUWBurhwal Junction (3)X  17:40+5017:42+502m--1214.151119mNERBarabanki, Uttar Pradesh
13BBKBarabanki Junction (4)X  18:14+1:0418:16+512m21241.245122mNRPin-225001, Uttar Pradesh
14GTNRGomti Nagar (3)  18:43+5418:45+552m11261.517117mNERLucknow, Uttar Pradesh
15BNZBadshahnagar (2)X  19:00+4719:05+465m11265.818116mNERLucknow, Uttar Pradesh
16DALDaliGanj (3)XO  19:19+2119:20+201m--1270.015121mNERHasanganj, Uttar Pradesh
17LCLucknow City (3)X  19:28+4119:30+412m11272.16127mNERLucknow, Uttar Pradesh
18LJNLucknow Junction (6)XO20:15+1420:55+540m41276.861126mNERLucknow, Uttar Pradesh
19ONUnnao Junction (5)X  21:48+1521:50+162m--1330.726129mNRUnnao, Uttar Pradesh
20CNBKanpur Central (10)  22:30+1722:35+235m--1348.188128mNCRKANPUR-208 001, Uttar Pradesh
21PHDPhaphund (4)X  23:32+5123:34+552m--1431.345146mNCRdist. Auraiya, Uttar Pradesh
22BNTBharthana (3)X  00:22+3600:24+432m--2467.654147mNCRBharthana, Uttar Pradesh
23ETWEtawah (5)X  00:46+4400:48+542m22487.487154mNCRDistt. Etawah, Uttar Pradesh
24SKBShikohabad Junction (4)X  01:26+1:0201:28+1:072m32542.848166mNCRDistrict Firozabad, Uttar Pradesh
25FZDFirozabad (4)XO  01:53+1:0501:55+1:102m32562.714164mNCRFirozabad, Uttar Pradesh
26TDLTundla Junction (5)  03:05+2103:10+255m22579.328167mNCRDistt.Firozabad, Uttar Pradesh
27AFAgra Fort (3)  04:00+3104:10+3610m12602.216170mNCRRakabganj, Uttar Pradesh
28IDHIdgah Agra Junction (3)  04:18+3704:20+372m--2604.327168mNCRAgra, Uttar Pradesh
29KLBKiraoli (1)X  05:08+2005:10+252m12626.062174mNCRKiraoli, Uttar Pradesh
30FTSFatehpur Sikri (2)  05:22+2705:24+282m--2638.457176mNCRAgra, Uttar Pradesh
31RBSRupbas (2)  05:39+2705:41+292m--2652.626178mNCRJAGNER ROAD, Rajasthan
32BXNBayana Junction (3)X  07:00+907:05+115m--2686.799198mWCRBayana, Rajasthan
33HANHindaun City (2)  07:25+1707:27+172m--2719.668230mWCRKarauli, Rajasthan
34SMBJShri Mahabirji (3)X  07:36+1907:38+192m--2729.876240mWCRKarauli, Rajasthan
35GGCGangapur City (3)  08:05+1908:10+205m--2763.877270mWCRGangapur, Rajasthan
36SWMSawai Madhopur Junction (4)  09:00+2009:05+205m--2827.881266mWCRSawai Madhopur, Rajasthan
37IDGIndargarh Sumerganj Mandi (2)  09:32+2509:33+261m--2864.051247mWCRIndargarh, Rajasthan
38LKELakheri (3)X  09:46+2409:47+251m--2875.058228mWCRBundi, Rajasthan
39KOTAKota Junction (5)X  10:50+1410:55+225m22935.643256mWCRKota, Rajasthan
40DKNTDakaniya Talav (2)  11:08+2711:10+292m22944.974278mWCRKota, Rajasthan
41MKXMorak (2)X  11:53+3311:55+332m--2997.849337mWCRMorak, Rajasthan
42RMARamganj Mandi Junction (3)  12:06+3312:08+352m--21006.862358mWCRRamganj Mandi, Rajasthan
43JHWJhalawar Road (3)X  12:20+3612:22+372m--21019.271361mWCRJhalawar City, Rajasthan
44BWMBhawani Mandi (3)X  12:36+4012:38+412m--21035.776384mWCRBhawani Mandi, Madhya Pradesh
45GOHGaroth (2)X  12:56+4312:58+442m121058.354441mWCRMadhya Pradesh 458880, Madhya Pradesh
46SGZShamgarh (3)  13:10+4413:15+445m--21069.262463mWCRMandsaur, Madhya Pradesh
47SVA•Suwasra (2)•  13:28+4613:30+472m--21082.671450mWCRSuwasra, Madhya Pradesh
48CMUChau Mahla (3)  13:43+4713:45+452m121098.023426mWCRJhalawar, Rajasthan
49VMAVikramgarh Alot (2)X  14:43+1214:45+132m121119.843443mWCRKota Division, Madhya Pradesh
50MEPMahidpur Road  15:18+215:20+62m--21143.741493mWCRGogapur, Madhya Pradesh
51NADNagda Junction (4)X  15:45+815:47+132m--21160.875468mWRNagda, Madhya Pradesh
52KUHKhachrod (2)  15:58+1816:00+172m--21174.655497mWRUjjain, Madhya Pradesh
53RTMRatlam Junction (7)  16:30+1616:50+1520m421202.277495mWRRatlam, Madhya Pradesh
54BMIBamnia (2)  17:25+2217:27+222m--21246.976392mWRBamnia, Madhya Pradesh
55MGNMeghnagar (3)  17:55+2617:57+262m--21282.586317mWRJhabua, Madhya Pradesh
56DHDDahod (3)  18:20+3418:22+342m221315.647313mWRDahod, Gujarat
57GDAGodhra Junction (3)X  19:55+1419:57+152m--21388.776122mWRGodhra, Gujarat
58BRCVadodara Junction (7)X  20:55+2921:05+2810m121462.68936mWRVadodara 390005, Gujarat
59AKVAnkleshwar Junction (4)X  21:59+3222:01+232m221542.43619mWRAnkleshwar, Gujarat
60STSurat (4)  23:25+2023:30+205m221592.46219mWRSurat 395001, Gujarat
61BLValsad (3)X  00:36+3500:37+371m331661.17915mWRValsad, Gujarat
62VAPIVapi (3)X  00:57+3800:59+392m231687.36827mWRVapi, Gujarat
63BORBoisar (3)  02:01+4302:03+432m331757.64517mWRBoisar Tel.no-02525-266626, Maharashtra
64BVIMumbai Borivali (8)  03:35+2403:40+255m631825.83419mWRMumbai - 400092, Maharashtra
65ADHMumbai Andheri (9)O  04:02+1104:04+132m--31838.41212mWRMumbai, Maharashtra
66BDTSMumbai Bandra Terminus (5)  04:35+17-231844.6-4mWRMumbai 400050, Maharashtra
Scroll to Top
Scroll to Bottom